Flag for France Weather past 2 weeks in Limoges, France

Now
64 °F

Partly sunny.


Feels Like: 64 °F
Forecast: 55 / 74 °F
Wind: 7 mph from North

Location: Limoges Airport

Current Time: Jul 30, 2015 at 12:11:36 PM

Latest Report: Jul 30, 2015 at 11:30 AM


Visibility: N/A

Pressure: 30.07 "Hg

Humidity: 52%

Dew point: 46 °F

Location of LimogesLocation

Historic Weather in Limoges — Graph

°F

Limoges temperature yesterday

Maximum temperature yesterday: 66 °F (at 5:30 PM)
Minimum temperature yesterday: 55 °F (at 10:30 AM)
Average temperature yesterday: 60 °F

Past Weeks' High & Low Weather Summary

 TemperatureHumidityPressure
High99 °F (Jul 16, 4:00 PM)100% (Jul 17, 2:00 AM)30.15 "Hg (Jul 17, 2:00 AM)
Low50 °F (Jul 30, 5:00 AM)19% (Jul 16, 4:30 PM)29.83 "Hg (Jul 24, 4:30 PM)
Average69 °F67%30.02 "Hg
* Reported Jul 15 11:00 AM — Jul 30 11:00 AM, Limoges, Weather by CustomWeather, © 2015

Note: Actual official high and low records may vary slightly from our data, if they occured in-between our weather recording intervals... More about our weather records

Advertising

Limoges weather history for previous 24 hours

 ConditionsComfort  
Time TempWeatherWind HumidityBarometerVisibility
11:00 AM
Thu, Jul 30
63 °FSunny.3 mph59%30.07 "Hg10 mi
10:30 AM63 °FPassing clouds.7 mph56%30.07 "HgN/A
10:00 AM61 °FSunny.8 mph59%30.07 "Hg10 mi
9:30 AM59 °FPassing clouds.6 mph63%30.07 "HgN/A
9:00 AM57 °FSunny.6 mph67%30.07 "Hg10 mi
8:30 AM55 °FSunny.6 mph67%30.07 "Hg10 mi
8:00 AM54 °FSunny.6 mph72%30.07 "Hg10 mi
7:30 AM54 °FClear.7 mph72%30.07 "Hg10 mi
7:00 AM54 °FClear.6 mph67%30.07 "Hg10 mi
6:30 AM52 °FClear.6 mph72%30.04 "Hg10 mi
5:30 AM54 °FClear.7 mph67%30.04 "Hg10 mi
5:00 AM50 °FClear.8 mph82%30.04 "Hg10 mi
4:30 AM54 °FClear.2 mph67%30.04 "Hg10 mi
4:00 AM55 °FClear.2 mph59%30.04 "Hg10 mi
3:30 AM57 °FClear.3 mph55%30.04 "Hg10 mi
3:00 AM57 °FClear.6 mph55%30.04 "Hg10 mi
2:30 AM57 °FClear.6 mph59%30.04 "Hg10 mi
2:00 AM57 °FClear.5 mph59%30.04 "Hg10 mi
1:30 AM59 °FClear.6 mph55%30.04 "Hg10 mi
1:00 AM59 °FClear.8 mph59%30.04 "Hg10 mi
12:30 AM59 °FClear.6 mph59%30.04 "Hg10 mi
12:00 AM57 °FClear.5 mph63%30.04 "Hg10 mi
11:30 PM
Wed, Jul 29
57 °FClear.5 mph63%30.04 "Hg10 mi
11:00 PM57 °FClear.5 mph67%30.04 "Hg10 mi
10:30 PM59 °FClear.6 mph59%30.04 "Hg10 mi
10:00 PM59 °FSunny.5 mph63%30.04 "Hg10 mi
9:30 PM61 °FSunny.2 mph59%30.01 "Hg10 mi
9:00 PM63 °FPassing clouds.5 mph56%30.01 "HgN/A
8:30 PM64 °FSunny.5 mph52%30.01 "Hg10 mi
8:00 PM64 °FPassing clouds.5 mph52%30.01 "HgN/A
7:30 PM64 °FScattered clouds.6 mph49%30.01 "HgN/A
7:00 PM66 °FPassing clouds.5 mph49%30.01 "HgN/A
6:30 PM66 °FPartly sunny.7 mph49%30.01 "HgN/A
6:00 PM66 °FPartly sunny.6 mph49%30.01 "HgN/A
5:30 PM66 °FPassing clouds.7 mph52%30.01 "HgN/A
5:00 PM64 °FScattered clouds.6 mph56%30.01 "HgN/A
4:30 PM64 °FPassing clouds.6 mph56%30.01 "HgN/A
4:00 PM64 °FPassing clouds.6 mph56%30.01 "HgN/A
3:30 PM63 °FPartly sunny.7 mph73%30.01 "HgN/A
3:00 PM61 °FMostly cloudy.7 mph77%30.01 "HgN/A
2:30 PM61 °FOvercast.7 mph83%30.01 "HgN/A
2:00 PM57 °FMostly cloudy.7 mph94%30.01 "HgN/A
1:30 PM59 °FMostly cloudy.9 mph94%29.98 "HgN/A
1:00 PM57 °FMostly cloudy.7 mph100%29.98 "HgN/A
12:30 PM57 °FMostly cloudy.8 mph100%29.98 "HgN/A
12:00 PM55 °FMostly cloudy.8 mph100%29.98 "HgN/A
Weather by CustomWeather, © 2015

See weather overviewHow to use our weather pages